User: anonymous   Login
Location: Elstree
(51.6403°N, 0.2969°W)
Time: 23:18:50
(UTC+00:00)
Language:

Cosmos 1862 Rocket - Orbit

View from above orbital plane
View from above orbital plane
View from above satellite
View from above satellite

Ground track
Ground track

The orbit data is extracted from the following two-line orbital elements,

1 18153U 87055B   21125.30441562  .00000077  00000-0  63320-5 0  9992
2 18153  82.5030 212.9506 0023147  91.6481 268.7385 14.83326459807491
Epoch (UTC): 05 May 2021 07:18:21
Eccentricity: 0.0023147
inclination: 82.5030°
perigee height: 602 km
apogee height: 635 km
right ascension of ascending node: 212.9506°
argument of perigee: 91.6481°
revolutions per day: 14.83326459
mean anomaly at epoch: 268.7385°
orbit number at epoch: 80749

The dashed part of the orbit path shows where the satellite is in the earth's shadow,  

DLR